Weather in Teterow

Germany     53°46′12″N   12°34′24″E
temp.,
°C
wind,
m/s
gust,
m/s
humid.,
%
clouds,
%
prec.,
mm/h
press.,
hPa
HPBL,
m
16 april, fri
fri1623:00+3n41064100 0.0 1028325
02:00+2n4117672 0.0 1027365
05:00+2n41076100 0.0 1027336
08:00+3nne4871100 0.0 1027450
11:00+6nne5762100 0.0 1027856
14:00+8nne6853100 0.0 10261190
17:00+8nne685175 0.0 10261232
20:00+5n486690 0.0 1026249
17 april, sat
sat1723:00+5n266897 0.0 1025226
02:00+5n41072100 0.0 1024506
05:00+5n4973100 0.0 1024485
08:00+4nne4886100 0.0 1024419
11:00+7nne4682100 0.0 1024514
14:00+10ne4674100 0.0 1023877
17:00+9ne4680100 0.0 1023588
20:00+6nne3890100 0.2 1023353
18 april, sun
sun1823:00+5nne3893100 0.4 1023377
02:00+5ne3797100 0.4 1023332
05:00+5nne3697100 0.0 1023221
08:00+6ne3792100 0.0 1023220
11:00+9ne4786100 0.0 1023398
14:00+10ne5781100 0.0 1022631
17:00+11ne6980100 0.0 1021697
20:00+8ne5128694 0.0 1022409
19 april, mon
mon1923:00+6ne41096100 0.0 1022283
02:00+5ne379677 0.0 1022200
05:00+6ne3696100 0.0 1021185
08:00+7ne3691100 0.0 1021221
11:00+7ne2494100 1.7 1020172
14:00+11ne3480100 2.1 1020479
17:00+14ne576824 0.0 1018890
20:00+9ne49916 0.0 1018256
20 april, tue
tue2023:00+7ne358193 0.0 1018120
02:00+8ese3582100 0.0 1017110
05:00+8ese2482100 0.0 101796
08:00+8ese3775100 0.0 1016217
11:00+13ese455338 0.0 10161367
14:00+13e3350100 0.0 10151656
17:00+12ene556880 0.0 1014535
20:00+8e358074 0.0 101397